Flag for Russia Weather past 2 weeks in Orenburg, Russia

Now
68 °F

Passing clouds.


Feels Like: 68 °F
Forecast: 66 / 84 °F
Wind: 6 mph from West

Location: Orenburg / Tsentralny

Current Time: Aug 23, 2014 at 2:10:44 AM

Latest Report: Aug 23, 2014 at 1:30 AM


Visibility: N/A

Pressure: 29.80 "Hg

Humidity: 73%

Dew point: 59 °F

Location of OrenburgLocation

Historic Weather in Orenburg — Graph

°F

Orenburg temperature yesterday

Maximum temperature yesterday: 95 °F (at 5:00 PM)
Minimum temperature yesterday: 72 °F (at 8:00 AM)
Average temperature yesterday: 83 °F

Past Weeks' High & Low Weather Summary

 TemperatureHumidityPressure
High102 °F (Aug 20, 3:00 PM)87% (Aug 14, 7:30 AM)30.04 "Hg (Aug 14, 7:30 AM)
Low46 °F (Aug 14, 7:30 AM)7% (Aug 20, 2:30 PM)29.62 "Hg (Aug 11, 2:00 AM)
Average78 °F39%29.85 "Hg
* Reported Midnight between Aug 7 and Aug 8 — Aug 23 12:30 AM, Orenburg, Weather by CustomWeather, © 2014

Note: Actual official high and low records may vary slightly from our data, if they occured in-between our weather recording intervals... More about our weather records

Advertising

Orenburg weather history for previous 24 hours

 ConditionsComfort  
Time TempWeatherWind HumidityBarometerVisibility
12:30 AM
Aug 23
72 °FPassing clouds.3 mph57%29.80 "HgN/A
12:00 AM73 °FPassing clouds.3 mph53%29.80 "HgN/A
11:30 PM
Aug 22
73 °FPassing clouds.3 mph50%29.80 "HgN/A
11:00 PM75 °FPassing clouds.6 mph47%29.80 "HgN/A
10:30 PM77 °FPassing clouds.6 mph44%29.77 "HgN/A
10:00 PM82 °FPassing clouds.10 mph37%29.77 "HgN/A
9:30 PM82 °FPassing clouds.13 mph37%29.77 "HgN/A
9:00 PM86 °FScattered clouds.10 mph33%29.74 "HgN/A
8:30 PM88 °FScattered clouds.13 mph33%29.74 "HgN/A
8:00 PM90 °FPartly sunny.13 mph31%29.74 "HgN/A
7:30 PM91 °FScattered clouds.13 mph28%29.74 "HgN/A
7:00 PM93 °FScattered clouds.10 mph26%29.74 "HgN/A
6:30 PM93 °FScattered clouds.10 mph24%29.74 "HgN/A
6:00 PM93 °FPartly sunny.8 mph24%29.74 "HgN/A
5:30 PM93 °FPartly sunny.8 mph26%29.77 "HgN/A
5:00 PM95 °FPartly sunny.13 mph22%29.77 "HgN/A
4:30 PM93 °FPartly sunny.15 mph23%29.77 "HgN/A
4:00 PM93 °FScattered clouds.13 mph23%29.77 "HgN/A
3:30 PM93 °FScattered clouds.13 mph21%29.77 "HgN/A
3:00 PM93 °FBroken clouds.13 mph21%29.77 "HgN/A
2:30 PM93 °FPartly sunny.10 mph21%29.77 "HgN/A
2:00 PM91 °FScattered clouds.8 mph23%29.77 "HgN/A
1:30 PM90 °FPassing clouds.13 mph24%29.80 "HgN/A
1:00 PM88 °FScattered clouds.6 mph31%29.80 "HgN/A
12:30 PM88 °FScattered clouds.10 mph31%29.80 "HgN/A
12:00 PM86 °FScattered clouds.13 mph35%29.80 "HgN/A
11:30 AM84 °FPassing clouds.6 mph43%29.80 "HgN/A
11:00 AM82 °FScattered clouds.8 mph45%29.80 "HgN/A
10:30 AM82 °FScattered clouds.6 mph42%29.80 "HgN/A
10:00 AM77 °FScattered clouds.3 mph57%29.80 "HgN/A
9:30 AM75 °FScattered clouds.6 mph57%29.80 "HgN/A
9:00 AM73 °FScattered clouds.6 mph61%29.80 "HgN/A
8:30 AM72 °FPartly sunny.6 mph65%29.83 "HgN/A
8:00 AM72 °FSprinkles. Partly sunny.3 mph65%29.83 "Hg3 mi
7:30 AM73 °FPartly sunny.8 mph57%29.83 "HgN/A
7:00 AM77 °FOvercast.8 mph44%29.80 "HgN/A
6:30 AM77 °FOvercast.3 mph44%29.80 "HgN/A
6:00 AM77 °FOvercast.3 mph44%29.80 "HgN/A
5:30 AM79 °FOvercast.8 mph45%29.83 "HgN/A
5:00 AM77 °FOvercast.3 mph51%29.86 "HgN/A
4:30 AM79 °FPassing clouds.8 mph45%29.83 "HgN/A
4:00 AM79 °FPassing clouds.13 mph45%29.83 "HgN/A
3:30 AM75 °FPassing clouds.8 mph57%29.83 "HgN/A
3:00 AM77 °FPassing clouds.10 mph47%29.89 "HgN/A
2:30 AM77 °FPassing clouds.3 mph47%29.86 "HgN/A
2:00 AM77 °FPassing clouds.1 mph47%29.86 "HgN/A
Weather by CustomWeather, © 2014

See weather overviewHow to use our weather pages